,,Stat5,,Stat1,,Stat2,,Stat3,,Stat4,,Wind1,,Wind1,
time,status,PA1M_AVG,status,PR1M_SUM,status,RH1M_AVG,status,SR1M_AVG,status,TA1M_AVG,status,W1dAve1m,status,W1sAve1m,
2001-01-06, 00:00:00,VALID,918.428,VALID,0,VALID,97.3235,VALID,0.0169808,VALID,20.3457,VALID,123,VALID,0,
2001-01-06, 00:01:00,VALID,918.422,VALID,0,VALID,97.4202,VALID,0,VALID,20.3527,VALID,122,VALID,0,
2001-01-06, 00:02:00,VALID,918.402,VALID,0,VALID,97.5054,VALID,-0.0169808,VALID,20.3621,VALID,132,VALID,0,
2001-01-06, 00:03:00,VALID,918.371,VALID,0,VALID,97.5689,VALID,0,VALID,20.3755,VALID,120,VALID,0,
2001-01-06, 00:04:00,VALID,918.356,VALID,0,VALID,97.4799,VALID,0,VALID,20.3753,VALID,120,VALID,0,
2001-01-06, 00:05:00,VALID,918.341,VALID,0,VALID,97.3591,VALID,0,VALID,20.3562,VALID,120,VALID,0,
2001-01-06, 00:06:00,VALID,918.333,VALID,0,VALID,97.3566,VALID,0,VALID,20.3527,VALID,121,VALID,0,
2001-01-06, 00:07:00,VALID,918.337,VALID,0,VALID,97.3413,VALID,0,VALID,20.3435,VALID,132,VALID,0.250601,
2001-01-06, 00:08:00,VALID,918.349,VALID,0,VALID,97.3579,VALID,0,VALID,20.3427,VALID,144,VALID,0.544054,
2001-01-06, 00:09:00,VALID,918.367,VALID,0,VALID,97.382,VALID,0,VALID,20.3492,VALID,143,VALID,0.37859,
2001-01-06, 00:10:00,VALID,918.387,VALID,0,VALID,97.1239,VALID,0,VALID,20.3271,VALID,142,VALID,0.198317,
2001-01-06, 00:11:00,VALID,918.382,VALID,0,VALID,96.7462,VALID,-0.0169808,VALID,20.301,VALID,142,VALID,0.377673,
2001-01-06, 00:12:00,VALID,918.369,VALID,0,VALID,96.5237,VALID,0,VALID,20.2334,VALID,140,VALID,0.489654,
2001-01-06, 00:13:00,VALID,918.369,VALID,0,VALID,96.6547,VALID,0,VALID,20.2204,VALID,138,VALID,0.440878,
2001-01-06, 00:14:00,VALID,918.356,VALID,0,VALID,96.6801,VALID,0,VALID,20.1948,VALID,137,VALID,0.385634,
2001-01-06, 00:15:00,VALID,918.356,VALID,0,VALID,96.5008,VALID,0,VALID,20.1429,VALID,133,VALID,0.388091,
2001-01-06, 00:16:00,VALID,918.347,VALID,0,VALID,96.7717,VALID,0.0169808,VALID,20.1133,VALID,103,VALID,0.534539,
2001-01-06, 00:17:00,VALID,918.348,VALID,0,VALID,97.0921,VALID,0,VALID,20.1192,VALID,93,VALID,0.597356,
2001-01-06, 00:18:00,VALID,918.359,VALID,0,VALID,97.2561,VALID,0.0169808,VALID,20.1391,VALID,81,VALID,0.851563,
2001-01-06, 00:19:00,VALID,918.355,VALID,0,VALID,97.2104,VALID,0,VALID,20.1391,VALID,90,VALID,0.777872,
2001-01-06, 00:20:00,VALID,918.358,VALID,0,VALID,97.2065,VALID,-0.0169808,VALID,20.1324,VALID,91,VALID,0.625822,
2001-01-06, 00:21:00,VALID,918.347,VALID,0,VALID,97.2256,VALID,-0.0849042,VALID,20.1431,VALID,92,VALID,0.747396,
2001-01-06, 00:22:00,VALID,918.356,VALID,0,VALID,97.2714,VALID,-0.0849042,VALID,20.1568,VALID,90,VALID,0.654447,
2001-01-06, 00:23:00,VALID,918.335,VALID,0,VALID,97.3159,VALID,-0.101885,VALID,20.1568,VALID,86,VALID,0.414982,
2001-01-06, 00:24:00,VALID,918.327,VALID,0,VALID,97.3858,VALID,-0.101885,VALID,20.1466,VALID,85,VALID,0.228824,
2001-01-06, 00:25:00,VALID,918.309,VALID,0,VALID,97.5524,VALID,-0.0679233,VALID,20.1595,VALID,70,VALID,0.130912,
2001-01-06, 00:26:00,VALID,918.29,VALID,0,VALID,97.6554,VALID,-0.0849042,VALID,20.166,VALID,39,VALID,0,
2001-01-06, 00:27:00,VALID,918.265,VALID,0,VALID,97.6948,VALID,-0.101885,VALID,20.1658,VALID,323,VALID,0,
2001-01-06, 00:28:00,VALID,918.23,VALID,0,VALID,97.7432,VALID,-0.0679233,VALID,20.1725,VALID,322,VALID,0,
2001-01-06, 00:29:00,VALID,918.2,VALID,0,VALID,97.8678,VALID,-0.0849042,VALID,20.1983,VALID,323,VALID,0,
2001-01-06, 00:30:00,VALID,918.188,VALID,0,VALID,97.9504,VALID,-0.0849042,VALID,20.208,VALID,333,VALID,0,
2001-01-06, 00:31:00,VALID,918.188,VALID,0,VALID,97.9619,VALID,-0.0679233,VALID,20.1916,VALID,334,VALID,0,
2001-01-06, 00:32:00,VALID,918.188,VALID,0,VALID,97.9644,VALID,-0.0849042,VALID,20.1854,VALID,333,VALID,0,
2001-01-06, 00:33:00,VALID,918.177,VALID,0,VALID,98.0344,VALID,-0.101885,VALID,20.2125,VALID,333,VALID,0,
2001-01-06, 00:34:00,VALID,918.181,VALID,0,VALID,98.1043,VALID,-0.101885,VALID,20.2118,VALID,333,VALID,0,
2001-01-06, 00:35:00,VALID,918.173,VALID,0,VALID,98.1374,VALID,-0.0679233,VALID,20.2078,VALID,333,VALID,0,
2001-01-06, 00:36:00,VALID,918.161,VALID,0,VALID,98.1437,VALID,0.0169808,VALID,20.2135,VALID,328,VALID,0,
2001-01-06, 00:37:00,VALID,918.145,VALID,0,VALID,98.1577,VALID,0.0169808,VALID,20.2035,VALID,315,VALID,0,
2001-01-06, 00:38:00,VALID,918.125,VALID,0,VALID,98.2289,VALID,0.0509425,VALID,20.2132,VALID,317,VALID,0,
2001-01-06, 00:39:00,VALID,918.091,VALID,0,VALID,98.2594,VALID,0.0339617,VALID,20.2033,VALID,318,VALID,0,
2001-01-06, 00:40:00,VALID,918.066,VALID,0,VALID,98.2861,VALID,0.0169808,VALID,20.2035,VALID,318,VALID,0,
2001-01-06, 00:41:00,VALID,918.051,VALID,0,VALID,98.2976,VALID,0,VALID,20.2107,VALID,318,VALID,0,
2001-01-06, 00:42:00,VALID,918.041,VALID,0,VALID,98.3535,VALID,-0.0169808,VALID,20.2229,VALID,318,VALID,0,
2001-01-06, 00:43:00,VALID,918.015,VALID,0,VALID,98.3777,VALID,0.0169808,VALID,20.2232,VALID,318,VALID,0,
2001-01-06, 00:44:00,VALID,918.002,VALID,0,VALID,98.3739,VALID,0.0169808,VALID,20.246,VALID,317,VALID,0,
2001-01-06, 00:45:00,VALID,917.988,VALID,0,VALID,98.3497,VALID,-0.0169808,VALID,20.2455,VALID,317,VALID,0,
2001-01-06, 00:46:00,VALID,917.984,VALID,0,VALID,98.3383,VALID,0.0169808,VALID,20.2687,VALID,306,VALID,0,
2001-01-06, 00:47:00,VALID,917.97,VALID,0,VALID,98.3065,VALID,0.0169808,VALID,20.2617,VALID,289,VALID,0,
2001-01-06, 00:48:00,VALID,917.955,VALID,0,VALID,98.2785,VALID,0.0169808,VALID,20.2684,VALID,289,VALID,0,
2001-01-06, 00:49:00,VALID,917.94,VALID,0,VALID,98.2187,VALID,0,VALID,20.255,VALID,286,VALID,0,
2001-01-06, 00:50:00,VALID,917.92,VALID,0,VALID,98.1933,VALID,0.0339617,VALID,20.245,VALID,285,VALID,0,
2001-01-06, 00:51:00,VALID,917.902,VALID,0,VALID,98.1755,VALID,0.0169808,VALID,20.2356,VALID,285,VALID,0,
2001-01-06, 00:52:00,VALID,917.882,VALID,0,VALID,98.1615,VALID,0.0169808,VALID,20.2493,VALID,285,VALID,0,
2001-01-06, 00:53:00,VALID,917.866,VALID,0,VALID,98.1526,VALID,0,VALID,20.246,VALID,285,VALID,0,
2001-01-06, 00:54:00,VALID,917.85,VALID,0,VALID,98.1552,VALID,-0.0169808,VALID,20.2525,VALID,285,VALID,0,
2001-01-06, 00:55:00,VALID,917.848,VALID,0,VALID,98.1526,VALID,0,VALID,20.2622,VALID,285,VALID,0,
2001-01-06, 00:56:00,VALID,917.828,VALID,0,VALID,98.1183,VALID,0,VALID,20.2652,VALID,285,VALID,0,
2001-01-06, 00:57:00,VALID,917.808,VALID,0,VALID,97.9822,VALID,0,VALID,20.2488,VALID,285,VALID,0,
2001-01-06, 00:58:00,VALID,917.804,VALID,0,VALID,97.8665,VALID,0,VALID,20.2428,VALID,285,VALID,0,
2001-01-06, 00:59:00,VALID,917.797,VALID,0,VALID,97.7889,VALID,0.0339617,VALID,20.2289,VALID,285,VALID,0,
2001-01-06, 01:00:00,VALID,917.792,VALID,0,VALID,97.7813,VALID,0.0169808,VALID,20.2463,VALID,67,VALID,0,
2001-01-06, 01:01:00,VALID,917.784,VALID,0,VALID,97.7177,VALID,0,VALID,20.2328,VALID,87,VALID,0,
2001-01-06, 01:02:00,VALID,917.783,VALID,0,VALID,97.6821,VALID,0,VALID,20.2097,VALID,87,VALID,0,
2001-01-06, 01:03:00,VALID,917.767,VALID,0,VALID,97.6058,VALID,0,VALID,20.1675,VALID,88,VALID,0.488692,
2001-01-06, 01:04:00,VALID,917.759,VALID,0,VALID,97.7139,VALID,0.0339617,VALID,20.1782,VALID,88,VALID,0.333193,
2001-01-06, 01:05:00,VALID,917.75,VALID,0,VALID,97.9186,VALID,0,VALID,20.1906,VALID,88,VALID,0.136502,
2001-01-06, 01:06:00,VALID,917.763,VALID,0,VALID,98.0255,VALID,0,VALID,20.2264,VALID,88,VALID,0,
2001-01-06, 01:07:00,VALID,917.761,VALID,0,VALID,98.0801,VALID,0,VALID,20.2557,VALID,88,VALID,0,
2001-01-06, 01:08:00,VALID,917.763,VALID,0,VALID,98.1157,VALID,0,VALID,20.2679,VALID,88,VALID,0,
2001-01-06, 01:09:00,VALID,917.771,VALID,0,VALID,98.1386,VALID,0,VALID,20.3139,VALID,88,VALID,0,
2001-01-06, 01:10:00,VALID,917.766,VALID,0,VALID,98.1183,VALID,0,VALID,20.3164,VALID,88,VALID,0,
2001-01-06, 01:11:00,VALID,917.779,VALID,0,VALID,98.0293,VALID,0,VALID,20.3295,VALID,88,VALID,0,
2001-01-06, 01:12:00,VALID,917.754,VALID,0,VALID,97.9466,VALID,0,VALID,20.3268,VALID,88,VALID,0,
2001-01-06, 01:13:00,VALID,917.745,VALID,0,VALID,97.8767,VALID,0,VALID,20.3266,VALID,90,VALID,0,
2001-01-06, 01:14:00,VALID,917.751,VALID,0,VALID,97.8067,VALID,0.0169808,VALID,20.33,VALID,98,VALID,0,
2001-01-06, 01:15:00,VALID,917.754,VALID,0,VALID,97.7139,VALID,0.0169808,VALID,20.3228,VALID,103,VALID,0.0176809,
2001-01-06, 01:16:00,VALID,917.752,VALID,0,VALID,97.6465,VALID,0,VALID,20.3303,VALID,100,VALID,0.352618,
2001-01-06, 01:17:00,VALID,917.762,VALID,0,VALID,97.63,VALID,0,VALID,20.3069,VALID,100,VALID,0.157986,
2001-01-06, 01:18:00,VALID,917.764,VALID,0,VALID,97.5829,VALID,0,VALID,20.3042,VALID,99,VALID,0.0447049,
2001-01-06, 01:19:00,VALID,917.764,VALID,0,VALID,97.6071,VALID,0.0169808,VALID,20.3007,VALID,99,VALID,0,
2001-01-06, 01:20:00,VALID,917.768,VALID,0,VALID,97.5906,VALID,0,VALID,20.3099,VALID,99,VALID,0,
2001-01-06, 01:21:00,VALID,917.777,VALID,0,VALID,97.513,VALID,0,VALID,20.3067,VALID,99,VALID,0,
2001-01-06, 01:22:00,VALID,917.761,VALID,0,VALID,97.3947,VALID,0.0169808,VALID,20.2972,VALID,99,VALID,0.191741,
2001-01-06, 01:23:00,VALID,917.751,VALID,0,VALID,97.3401,VALID,0,VALID,20.2975,VALID,99,VALID,0.341488,
2001-01-06, 01:24:00,VALID,917.733,VALID,0,VALID,97.2218,VALID,0,VALID,20.2913,VALID,99,VALID,0.475962,
2001-01-06, 01:25:00,VALID,917.726,VALID,0,VALID,97.0679,VALID,0.0169808,VALID,20.2684,VALID,99,VALID,0.564062,
2001-01-06, 01:26:00,VALID,917.706,VALID,0,VALID,96.9789,VALID,0.0169808,VALID,20.2294,VALID,97,VALID,0.452508,
2001-01-06, 01:27:00,VALID,917.68,VALID,0,VALID,97.059,VALID,0,VALID,20.2264,VALID,97,VALID,0.479852,
2001-01-06, 01:28:00,VALID,917.669,VALID,0,VALID,97.0031,VALID,0,VALID,20.21,VALID,95,VALID,0.820713,
2001-01-06, 01:29:00,VALID,917.656,VALID,0,VALID,96.8734,VALID,0,VALID,20.1911,VALID,83,VALID,0.896034,
2001-01-06, 01:30:00,VALID,917.631,VALID,0,VALID,96.8899,VALID,0,VALID,20.155,VALID,81,VALID,0.633614,
2001-01-06, 01:31:00,VALID,917.608,VALID,0,VALID,96.9446,VALID,0,VALID,20.1289,VALID,84,VALID,0.701287,
2001-01-06, 01:32:00,VALID,917.597,VALID,0,VALID,97.0921,VALID,0.0169808,VALID,20.1198,VALID,83,VALID,0.747266,
2001-01-06, 01:33:00,VALID,917.57,VALID,0,VALID,97.2091,VALID,0,VALID,20.1039,VALID,91,VALID,0.527127,
2001-01-06, 01:34:00,VALID,917.559,VALID,0,VALID,97.2218,VALID,0.0169808,VALID,20.0608,VALID,87,VALID,0.606988,
2001-01-06, 01:35:00,VALID,917.544,VALID,0,VALID,97.3083,VALID,0.0169808,VALID,20.0516,VALID,92,VALID,0.544341,
2001-01-06, 01:36:00,VALID,917.537,VALID,0,VALID,97.3591,VALID,0,VALID,20.0387,VALID,96,VALID,0.640625,
2001-01-06, 01:37:00,VALID,917.543,VALID,0,VALID,97.3146,VALID,0,VALID,20.0091,VALID,90,VALID,0.90625,
2001-01-06, 01:38:00,VALID,917.542,VALID,0,VALID,97.2994,VALID,0,VALID,19.9997,VALID,89,VALID,0.87859,
2001-01-06, 01:39:00,VALID,917.566,VALID,0,VALID,97.3579,VALID,0,VALID,19.9835,VALID,107,VALID,0.658854,
2001-01-06, 01:40:00,VALID,917.58,VALID,0,VALID,97.3744,VALID,0.0169808,VALID,19.991,VALID,87,VALID,0.667558,
2001-01-06, 01:41:00,VALID,917.592,VALID,0,VALID,97.2816,VALID,0,VALID,19.9709,VALID,94,VALID,0.58087,
2001-01-06, 01:42:00,VALID,917.6,VALID,0,VALID,97.3299,VALID,0,VALID,19.955,VALID,90,VALID,0.486662,
2001-01-06, 01:43:00,VALID,917.61,VALID,0,VALID,97.4253,VALID,0.0169808,VALID,19.9552,VALID,113,VALID,0.399023,
2001-01-06, 01:44:00,VALID,917.597,VALID,0,VALID,97.5181,VALID,0,VALID,19.9517,VALID,100,VALID,0.0921053,
2001-01-06, 01:45:00,VALID,917.605,VALID,0,VALID,97.6211,VALID,0,VALID,19.9381,VALID,121,VALID,0.175042,
2001-01-06, 01:46:00,VALID,917.61,VALID,0,VALID,97.677,VALID,0,VALID,19.9318,VALID,118,VALID,0.593164,
2001-01-06, 01:47:00,VALID,917.617,VALID,0,VALID,97.7266,VALID,0,VALID,19.9087,VALID,105,VALID,0.668791,
2001-01-06, 01:48:00,VALID,917.62,VALID,0,VALID,97.7139,VALID,0,VALID,19.8971,VALID,88,VALID,0.789509,
2001-01-06, 01:49:00,VALID,917.624,VALID,0,VALID,97.6402,VALID,0,VALID,19.8613,VALID,94,VALID,0.844551,
2001-01-06, 01:50:00,VALID,917.631,VALID,0,VALID,97.5232,VALID,0,VALID,19.8454,VALID,94,VALID,0.67296,
2001-01-06, 01:51:00,VALID,917.637,VALID,0,VALID,97.3223,VALID,-0.101885,VALID,19.8401,VALID,96,VALID,0.700802,
2001-01-06, 01:52:00,VALID,917.636,VALID,0,VALID,97.1811,VALID,-0.101885,VALID,19.8466,VALID,94,VALID,0.460938,
2001-01-06, 01:53:00,VALID,917.635,VALID,0,VALID,97.0196,VALID,-0.0679233,VALID,19.8459,VALID,91,VALID,0.455798,
2001-01-06, 01:54:00,VALID,917.628,VALID,0,VALID,96.75,VALID,-0.0679233,VALID,19.8401,VALID,92,VALID,0.516859,
2001-01-06, 01:55:00,VALID,917.631,VALID,0,VALID,96.5211,VALID,-0.0849042,VALID,19.8205,VALID,91,VALID,0.23712,
2001-01-06, 01:56:00,VALID,917.619,VALID,0,VALID,96.1117,VALID,-0.0679233,VALID,19.814,VALID,84,VALID,0.568359,
2001-01-06, 01:57:00,VALID,917.613,VALID,0,VALID,95.8993,VALID,-0.0679233,VALID,19.8076,VALID,84,VALID,0.571579,
2001-01-06, 01:58:00,VALID,917.608,VALID,0,VALID,95.7493,VALID,-0.0849042,VALID,19.8277,VALID,85,VALID,0.402138,
2001-01-06, 01:59:00,VALID,917.622,VALID,0,VALID,95.6196,VALID,-0.101885,VALID,19.8305,VALID,84,VALID,0.5625,
2001-01-06, 02:00:00,VALID,917.606,VALID,0,VALID,95.2088,VALID,-0.101885,VALID,19.8339,VALID,100,VALID,0.654247,
2001-01-06, 02:01:01,VALID,917.605,VALID,0,VALID,95.1084,VALID,-0.0679233,VALID,19.8533,VALID,90,VALID,0.541807,
2001-01-06, 02:02:00,VALID,917.595,VALID,0,VALID,94.9011,VALID,-0.101885,VALID,19.8464,VALID,70,VALID,0.906456,
2001-01-06, 02:03:00,VALID,917.582,VALID,0,VALID,94.5959,VALID,-0.101885,VALID,19.863,VALID,87,VALID,0.623397,
2001-01-06, 02:04:00,VALID,917.568,VALID,0,VALID,94.5082,VALID,-0.0849042,VALID,19.8856,VALID,71,VALID,0.621795,
2001-01-06, 02:05:00,VALID,917.53,VALID,0,VALID,94.3645,VALID,-0.0169808,VALID,19.8782,VALID,70,VALID,0.466741,
2001-01-06, 02:06:00,VALID,917.53,VALID,0,VALID,94.3391,VALID,0.0509425,VALID,19.8774,VALID,73,VALID,0.531867,
2001-01-06, 02:07:00,VALID,917.513,VALID,0,VALID,94.3569,VALID,0,VALID,19.8834,VALID,104,VALID,0.386402,
2001-01-06, 02:08:00,VALID,917.49,VALID,0,VALID,94.4421,VALID,0.0339617,VALID,19.8936,VALID,91,VALID,0.144748,
2001-01-06, 02:09:00,VALID,917.465,VALID,0,VALID,94.1572,VALID,0,VALID,19.9035,VALID,82,VALID,0.207031,
2001-01-06, 02:10:01,VALID,917.452,VALID,0,VALID,94.278,VALID,0.0509425,VALID,19.8936,VALID,74,VALID,0.128701,
2001-01-06, 02:11:00,VALID,917.434,VALID,0,VALID,94.0466,VALID,0.0169808,VALID,19.8772,VALID,62,VALID,0.235197,
2001-01-06, 02:12:00,VALID,917.414,VALID,0,VALID,94.1521,VALID,0.0169808,VALID,19.8836,VALID,104,VALID,0.674045,
2001-01-06, 02:13:00,VALID,917.397,VALID,0,VALID,94.1776,VALID,0.0169808,VALID,19.8834,VALID,81,VALID,0.36317,
2001-01-06, 02:14:00,VALID,917.382,VALID,0,VALID,94.0822,VALID,0.0509425,VALID,19.8739,VALID,54,VALID,0.351974,
2001-01-06, 02:15:00,VALID,917.379,VALID,0,VALID,93.9474,VALID,0,VALID,19.871,VALID,36,VALID,0.19391,
2001-01-06, 02:16:01,VALID,917.373,VALID,0,VALID,93.8927,VALID,0.0169808,VALID,19.8903,VALID,34,VALID,0.00117188,
2001-01-06, 02:17:00,VALID,917.365,VALID,0,VALID,93.8508,VALID,0,VALID,19.9003,VALID,36,VALID,0.106291,
2001-01-06, 02:18:00,VALID,917.37,VALID,0,VALID,93.7452,VALID,0.0169808,VALID,19.8966,VALID,42,VALID,0.068051,
2001-01-06, 02:19:00,VALID,917.368,VALID,0,VALID,93.8088,VALID,0.0169808,VALID,19.9391,VALID,105,VALID,0.454527,
2001-01-06, 02:20:00,VALID,917.377,VALID,0,VALID,93.3994,VALID,0,VALID,19.949,VALID,80,VALID,0.117588,
2001-01-06, 02:21:00,VALID,917.384,VALID,0,VALID,93.4718,VALID,-0.0509425,VALID,19.9567,VALID,69,VALID,0,
2001-01-06, 02:22:00,VALID,917.385,VALID,0,VALID,93.2747,VALID,-0.0169808,VALID,19.9468,VALID,92,VALID,0.571691,
2001-01-06, 02:23:01,VALID,917.368,VALID,0,VALID,93.1666,VALID,-0.0339617,VALID,19.9468,VALID,91,VALID,0.0898438,
2001-01-06, 02:24:01,VALID,917.353,VALID,0,VALID,93.3358,VALID,-0.0169808,VALID,19.9433,VALID,91,VALID,0,
2001-01-06, 02:25:00,VALID,917.337,VALID,0,VALID,93.4083,VALID,-0.0339617,VALID,19.9371,VALID,91,VALID,0,
2001-01-06, 02:26:00,VALID,917.309,VALID,0,VALID,93.4604,VALID,0,VALID,19.9237,VALID,91,VALID,0,
2001-01-06, 02:27:00,VALID,917.279,VALID,0,VALID,93.5138,VALID,-0.0509425,VALID,19.9271,VALID,93,VALID,0,
2001-01-06, 02:28:00,VALID,917.257,VALID,0,VALID,93.6855,VALID,-0.0509425,VALID,19.9142,VALID,95,VALID,0,
2001-01-06, 02:29:01,VALID,917.234,VALID,0,VALID,93.7885,VALID,-0.0849042,VALID,19.8824,VALID,95,VALID,0,
2001-01-06, 02:30:00,VALID,917.205,VALID,0,VALID,93.6702,VALID,-0.0679233,VALID,19.8566,VALID,95,VALID,0,
2001-01-06, 02:31:01,VALID,917.189,VALID,0,VALID,93.7478,VALID,-0.0849042,VALID,19.8367,VALID,95,VALID,0,
2001-01-06, 02:32:01,VALID,917.168,VALID,0,VALID,93.8419,VALID,-0.0849042,VALID,19.821,VALID,91,VALID,0,
2001-01-06, 02:33:00,VALID,917.167,VALID,0,VALID,94.0097,VALID,-0.0509425,VALID,19.8011,VALID,89,VALID,0,
2001-01-06, 02:34:00,VALID,917.169,VALID,0,VALID,94.0682,VALID,-0.101885,VALID,19.7887,VALID,88,VALID,0,
2001-01-06, 02:35:01,VALID,917.185,VALID,0,VALID,93.9347,VALID,-0.0509425,VALID,19.7755,VALID,88,VALID,0.026727,
2001-01-06, 02:36:00,VALID,917.19,VALID,0,VALID,93.9385,VALID,0.0509425,VALID,19.771,VALID,90,VALID,0.627111,
2001-01-06, 02:37:00,VALID,917.197,VALID,0,VALID,94.0263,VALID,0.0679233,VALID,19.7678,VALID,94,VALID,0.264258,
2001-01-06, 02:38:00,VALID,917.21,VALID,0,VALID,94.1649,VALID,0.0679233,VALID,19.7609,VALID,94,VALID,0.00164474,
2001-01-06, 02:39:01,VALID,917.21,VALID,0,VALID,94.1674,VALID,0.0509425,VALID,19.7643,VALID,93,VALID,0.100223,
2001-01-06, 02:40:00,VALID,917.198,VALID,0,VALID,94.2043,VALID,0.0339617,VALID,19.7907,VALID,91,VALID,0.072516,
2001-01-06, 02:41:00,VALID,917.19,VALID,0,VALID,93.9385,VALID,0.0339617,VALID,19.7999,VALID,66,VALID,0.404731,
2001-01-06, 02:42:01,VALID,917.17,VALID,0,VALID,93.7592,VALID,0.0679233,VALID,19.816,VALID,70,VALID,0.317779,
2001-01-06, 02:43:00,VALID,917.155,VALID,0,VALID,93.7147,VALID,0.0339617,VALID,19.8222,VALID,81,VALID,0.0580929,
2001-01-06, 02:44:00,VALID,917.122,VALID,0,VALID,93.7427,VALID,0.0679233,VALID,19.8451,VALID,81,VALID,0,
2001-01-06, 02:45:00,VALID,917.097,VALID,0,VALID,93.7681,VALID,0.0339617,VALID,19.8613,VALID,81,VALID,0,
2001-01-06, 02:46:00,VALID,917.063,VALID,0,VALID,93.641,VALID,0.0339617,VALID,19.8513,VALID,81,VALID,0,
2001-01-06, 02:47:00,VALID,917.046,VALID,0,VALID,93.744,VALID,0.0679233,VALID,19.858,VALID,81,VALID,0,
2001-01-06, 02:48:00,VALID,917.03,VALID,0,VALID,93.763,VALID,0.0509425,VALID,19.868,VALID,81,VALID,0,
2001-01-06, 02:49:00,VALID,917.018,VALID,0,VALID,93.9118,VALID,0.0849042,VALID,19.8608,VALID,81,VALID,0,
2001-01-06, 02:50:01,VALID,917.011,VALID,0,VALID,93.73,VALID,0.0339617,VALID,19.8647,VALID,81,VALID,0,
2001-01-06, 02:51:00,VALID,916.995,VALID,0,VALID,93.7694,VALID,0.0169808,VALID,19.8486,VALID,81,VALID,0,
2001-01-06, 02:52:01,VALID,916.981,VALID,0,VALID,93.8533,VALID,0.0679233,VALID,19.8386,VALID,81,VALID,0,
2001-01-06, 02:53:00,VALID,916.95,VALID,0,VALID,93.8609,VALID,0.0169808,VALID,19.8322,VALID,81,VALID,0,
2001-01-06, 02:54:00,VALID,916.937,VALID,0,VALID,93.9283,VALID,0.0679233,VALID,19.8155,VALID,81,VALID,0,
2001-01-06, 02:55:00,VALID,916.906,VALID,0,VALID,94.011,VALID,0.0849042,VALID,19.816,VALID,81,VALID,0,
2001-01-06, 02:56:00,VALID,916.877,VALID,0,VALID,93.8915,VALID,0.0509425,VALID,19.816,VALID,81,VALID,0,
2001-01-06, 02:57:00,VALID,916.868,VALID,0,VALID,93.702,VALID,0.0339617,VALID,19.7902,VALID,81,VALID,0,
2001-01-06, 02:58:00,VALID,916.862,VALID,0,VALID,93.7147,VALID,0.0509425,VALID,19.7805,VALID,81,VALID,0,
2001-01-06, 02:59:00,VALID,916.857,VALID,0,VALID,93.8126,VALID,0.0679233,VALID,19.7576,VALID,81,VALID,0,
2001-01-06, 03:00:00,VALID,916.864,VALID,0,VALID,93.9423,VALID,0.0509425,VALID,19.7614,VALID,81,VALID,0,
2001-01-06, 03:01:01,VALID,916.867,VALID,0,VALID,94.011,VALID,0.0509425,VALID,19.7646,VALID,81,VALID,0,
2001-01-06, 03:02:01,VALID,916.872,VALID,0,VALID,93.9474,VALID,0.0339617,VALID,19.7743,VALID,81,VALID,0,
2001-01-06, 03:03:00,VALID,916.88,VALID,0,VALID,93.8686,VALID,0.0679233,VALID,19.7676,VALID,96,VALID,0,
2001-01-06, 03:04:00,VALID,916.878,VALID,0,VALID,93.8241,VALID,0.0849042,VALID,19.7676,VALID,131,VALID,0,
2001-01-06, 03:05:00,VALID,916.893,VALID,0,VALID,93.9067,VALID,0.0679233,VALID,19.7743,VALID,131,VALID,0,
2001-01-06, 03:06:00,VALID,916.889,VALID,0,VALID,93.9309,VALID,-0.0339617,VALID,19.7857,VALID,131,VALID,0,
2001-01-06, 03:07:01,VALID,916.885,VALID,0,VALID,93.8559,VALID,-0.0339617,VALID,19.7954,VALID,131,VALID,0,
2001-01-06, 03:08:00,VALID,916.895,VALID,0,VALID,93.7554,VALID,-0.0339617,VALID,19.782,VALID,130,VALID,0.232113,
2001-01-06, 03:09:01,VALID,916.896,VALID,0,VALID,93.8699,VALID,-0.0679233,VALID,19.7725,VALID,130,VALID,0.0215872,
2001-01-06, 03:10:00,VALID,916.91,VALID,0,VALID,93.9525,VALID,-0.0509425,VALID,19.7696,VALID,140,VALID,0,
2001-01-06, 03:11:00,VALID,916.927,VALID,0,VALID,94.0466,VALID,0,VALID,19.7524,VALID,148,VALID,0,
2001-01-06, 03:12:00,VALID,916.929,VALID,0,VALID,94.1,VALID,-0.0169808,VALID,19.7589,VALID,148,VALID,0.33754,
2001-01-06, 03:13:00,VALID,916.944,VALID,0,VALID,94.0631,VALID,-0.0339617,VALID,19.7527,VALID,148,VALID,0.706342,
2001-01-06, 03:14:01,VALID,916.948,VALID,0,VALID,94.0822,VALID,-0.0509425,VALID,19.7271,VALID,151,VALID,0.684766,
2001-01-06, 03:15:01,VALID,916.933,VALID,0,VALID,94.1242,VALID,-0.0849042,VALID,19.7211,VALID,156,VALID,0.757595,
2001-01-06, 03:16:00,VALID,916.94,VALID,0,VALID,94.0797,VALID,-0.0169808,VALID,19.7111,VALID,163,VALID,0.798611,
2001-01-06, 03:17:00,VALID,916.94,VALID,0,VALID,93.9868,VALID,-0.0169808,VALID,19.7208,VALID,162,VALID,0.827492,
2001-01-06, 03:18:00,VALID,916.941,VALID,0,VALID,93.9322,VALID,-0.0169808,VALID,19.7015,VALID,163,VALID,0.823191,
2001-01-06, 03:19:00,VALID,916.947,VALID,0,VALID,94.0746,VALID,-0.0169808,VALID,19.656,VALID,169,VALID,0.711372,
2001-01-06, 03:20:01,VALID,916.968,VALID,0,VALID,94.3391,VALID,-0.0169808,VALID,19.6075,VALID,171,VALID,0.331503,
2001-01-06, 03:21:00,VALID,916.99,VALID,0,VALID,94.5819,VALID,0.0169808,VALID,19.5484,VALID,171,VALID,0,
2001-01-06, 03:22:01,VALID,917.008,VALID,0,VALID,94.821,VALID,0,VALID,19.5096,VALID,174,VALID,0,
2001-01-06, 03:23:01,VALID,917.015,VALID,0,VALID,95.0588,VALID,0.0339617,VALID,19.4741,VALID,181,VALID,0,
2001-01-06, 03:24:01,VALID,917.009,VALID,0,VALID,95.2584,VALID,0.0339617,VALID,19.435,VALID,186,VALID,0,
2001-01-06, 03:25:00,VALID,917.024,VALID,0,VALID,95.4403,VALID,0.0339617,VALID,19.4288,VALID,184,VALID,0.564648,
2001-01-06, 03:26:01,VALID,917.034,VALID,0,VALID,95.6259,VALID,0.0169808,VALID,19.4256,VALID,193,VALID,0.740543,
2001-01-06, 03:27:00,VALID,917.036,VALID,0,VALID,95.8256,VALID,0.0339617,VALID,19.4065,VALID,194,VALID,0.630068,
2001-01-06, 03:28:00,VALID,917.03,VALID,0,VALID,96.0774,VALID,0.0169808,VALID,19.4097,VALID,199,VALID,0.52207,
2001-01-06, 03:29:00,VALID,917.034,VALID,0,VALID,96.2821,VALID,0.0169808,VALID,19.4199,VALID,200,VALID,0.305921,
2001-01-06, 03:30:01,VALID,917.038,VALID,0,VALID,96.3902,VALID,0,VALID,19.4226,VALID,191,VALID,0.400223,
2001-01-06, 03:31:00,VALID,917.036,VALID,0,VALID,96.5377,VALID,0.0169808,VALID,19.4293,VALID,193,VALID,0.605168,
2001-01-06, 03:32:01,VALID,917.062,VALID,0,VALID,96.6547,VALID,0.0509425,VALID,19.4286,VALID,193,VALID,0.541667,
2001-01-06, 03:33:01,VALID,917.053,VALID,0,VALID,96.7538,VALID,0,VALID,19.4323,VALID,194,VALID,0.526182,
2001-01-06, 03:34:01,VALID,917.055,VALID,0,VALID,96.792,VALID,0.0169808,VALID,19.4325,VALID,166,VALID,0.472957,
2001-01-06, 03:35:01,VALID,917.052,VALID,0,VALID,96.8848,VALID,-0.0169808,VALID,19.4455,VALID,201,VALID,0.64227,
2001-01-06, 03:36:01,VALID,917.041,VALID,0,VALID,96.8823,VALID,-0.0849042,VALID,19.4502,VALID,210,VALID,0.547697,
2001-01-06, 03:37:01,VALID,917.034,VALID,0,VALID,96.9052,VALID,-0.0849042,VALID,19.4395,VALID,228,VALID,0.554899,
2001-01-06, 03:38:00,VALID,917.017,VALID,0,VALID,96.9153,VALID,-0.0679233,VALID,19.4368,VALID,224,VALID,0.610026,
2001-01-06, 03:39:01,VALID,916.999,VALID,0,VALID,96.9433,VALID,-0.101885,VALID,19.4402,VALID,226,VALID,0.5625,
2001-01-06, 03:40:01,VALID,916.993,VALID,0,VALID,96.9967,VALID,-0.101885,VALID,19.4402,VALID,225,VALID,0.670436,